Weather History for Porterville, CA

Change the Weather History Date:

Friday, January 31, 2014

  Actual Average Record
Temperature  
Mean Temperature 47 °F -  
Max Temperature 57 °F 59 °F 75 °F (1984)
Min Temperature 37 °F 37 °F 26 °F (1972)
Degree Days  
Heating Degree Days 18    
Moisture  
Dew Point 43 °F    
Average Humidity 81    
Maximum Humidity 94    
Minimum Humidity 58    
Precipitation  
Precipitation 0.19 in - - ()
Sea Level Pressure  
Sea Level Pressure 29.99 in    
Wind  
Wind Speed 5 mph (West)    
Max Wind Speed 13 mph    
Max Gust Speed -    
Visibility 10 miles    
Events      
Averages and records for this station are not official NWS values.
T = Trace of Precipitation, MM = Missing Value Source: NWS Daily Summary

Daily Weather History Graph

Daily Weather History Graph

Search for Another Location

Airport:

Trip Planner

Search our weather history database for the weather conditions in past years. The results will help you decide how hot, cold, wet, or windy it might be!

Date:

Astronomy

Jan. 31, 2014 Rise Set
Actual Time 6:57 AM PST 5:22 PM PST
Civil Twilight 6:30 AM PST 5:49 PM PST
Nautical Twilight 5:59 AM PST 6:20 PM PST
Astronomical Twilight 5:29 AM PST 6:50 PM PST
Moon 7:14 AM PST (1/31) 6:48 PM PST (1/31)
Length of Visible Light 11h 18m
Length of Day
10h 24m
New Moon, 1% of the Moon is Illuminated
Jan 31
New Moon
Feb 6
First Quarter
Feb 14
Full
Feb 22
Last Quarter
Mar 1
New

Hourly Weather History & Observations

Time (PST) Temp. Windchill Dew Point Humidity Pressure Visibility Wind Dir Wind Speed Gust Speed Precip Events Conditions
12:15 AM 50.0 °F - 48.2 °F 94% 29.88 in 2.5 mi SSE 4.6 mph - N/A   Overcast
12:35 AM 50.0 °F - 48.2 °F 94% 29.89 in 5.0 mi SSW 3.5 mph - N/A   Overcast
12:55 AM 50.0 °F - 48.2 °F 94% 29.88 in 6.0 mi SSE 6.9 mph - 0.01 in   Overcast
1:15 AM 50.0 °F - 48.2 °F 94% 29.88 in 8.0 mi ESE 4.6 mph - 0.01 in   Overcast
1:35 AM 48.2 °F - 46.4 °F 93% 29.88 in 10.0 mi SE 6.9 mph - 0.01 in   Overcast
1:55 AM 50.0 °F - 46.4 °F 87% 29.88 in 10.0 mi SSE 3.5 mph - 0.01 in   Overcast
2:15 AM 50.0 °F - 46.4 °F 87% 29.88 in 10.0 mi Calm Calm - 0.01 in   Overcast
2:35 AM 50.0 °F - 46.4 °F 87% 29.88 in 10.0 mi ESE 6.9 mph - 0.01 in   Overcast
2:55 AM 50.0 °F - 46.4 °F 87% 29.88 in 8.0 mi SE 5.8 mph - 0.01 in   Mostly Cloudy
3:15 AM 50.0 °F - 46.4 °F 87% 29.88 in 6.0 mi South 5.8 mph - 0.01 in   Mostly Cloudy
3:35 AM 48.2 °F - 44.6 °F 87% 29.89 in 8.0 mi West 9.2 mph - 0.05 in   Overcast
3:55 AM 46.4 °F 42.4 °F 44.6 °F 93% 29.88 in 8.0 mi South 8.1 mph - 0.12 in   Overcast
4:15 AM 48.2 °F - 44.6 °F 87% 29.91 in 7.0 mi NNW 4.6 mph - 0.02 in   Mostly Cloudy
4:35 AM 46.4 °F 42.4 °F 44.6 °F 93% 29.91 in 8.0 mi NE 8.1 mph - 0.03 in   Overcast
4:55 AM 46.4 °F 44.3 °F 44.6 °F 93% 29.93 in 10.0 mi ENE 4.6 mph - 0.03 in   Overcast
5:15 AM 46.4 °F 44.3 °F 42.8 °F 87% 29.94 in 10.0 mi East 4.6 mph - 0.01 in   Overcast
5:35 AM 46.4 °F 44.3 °F 42.8 °F 87% 29.94 in 10.0 mi ESE 4.6 mph - 0.01 in   Overcast
5:55 AM 46.4 °F 45.2 °F 42.8 °F 87% 29.95 in 10.0 mi ESE 3.5 mph - 0.01 in   Overcast
6:15 AM 46.4 °F 45.2 °F 42.8 °F 87% 29.96 in 10.0 mi SE 3.5 mph - N/A   Overcast
6:35 AM 46.4 °F - 42.8 °F 87% 29.96 in 10.0 mi Calm Calm - N/A   Overcast
6:55 AM 44.6 °F 42.2 °F 42.8 °F 93% 29.97 in 10.0 mi South 4.6 mph - N/A   Overcast
7:15 AM 44.6 °F 42.2 °F 42.8 °F 93% 29.98 in 10.0 mi SSW 4.6 mph - N/A   Overcast
7:35 AM 44.6 °F 41.4 °F 42.8 °F 93% 29.98 in 10.0 mi South 5.8 mph - N/A   Mostly Cloudy
7:55 AM 46.4 °F 43.5 °F 44.6 °F 93% 29.99 in 10.0 mi SW 5.8 mph - N/A   Mostly Cloudy
8:15 AM 46.4 °F 44.3 °F 44.6 °F 93% 29.99 in 10.0 mi SSW 4.6 mph - N/A   Mostly Cloudy
8:35 AM 46.4 °F 43.5 °F 44.6 °F 93% 30.01 in 10.0 mi SW 5.8 mph - N/A   Mostly Cloudy
8:55 AM 48.2 °F - 44.6 °F 87% 30.02 in 10.0 mi SW 4.6 mph - N/A   Overcast
9:15 AM 50.0 °F - 46.4 °F 87% 30.03 in 10.0 mi West 5.8 mph - N/A   Mostly Cloudy
9:35 AM 50.0 °F - 44.6 °F 82% 30.04 in 10.0 mi WNW 8.1 mph - N/A   Overcast
9:55 AM 50.0 °F - 44.6 °F 82% 30.05 in 10.0 mi WNW 4.6 mph - N/A   Overcast
10:15 AM 50.0 °F - 44.6 °F 82% 30.05 in 10.0 mi NNW 8.1 mph - N/A   Overcast
10:35 AM 51.8 °F - 44.6 °F 76% 30.05 in 10.0 mi NNW 5.8 mph - N/A   Mostly Cloudy
10:55 AM 51.8 °F - 46.4 °F 82% 30.05 in 10.0 mi North 5.8 mph - N/A   Mostly Cloudy
11:15 AM 51.8 °F - 44.6 °F 76% 30.04 in 10.0 mi North 4.6 mph - N/A   Overcast
11:35 AM 51.8 °F - 44.6 °F 76% 30.04 in 10.0 mi WNW 3.5 mph - N/A   Overcast
11:55 AM 53.6 °F - 44.6 °F 72% 30.04 in 10.0 mi NW 9.2 mph - N/A   Mostly Cloudy
12:15 PM 53.6 °F - 44.6 °F 72% 30.03 in 10.0 mi NW 6.9 mph - N/A   Mostly Cloudy
12:35 PM 53.6 °F - 44.6 °F 72% 30.03 in 10.0 mi NW 9.2 mph - N/A   Overcast
12:55 PM 55.4 °F - 44.6 °F 67% 30.03 in 10.0 mi NW 9.2 mph - N/A   Overcast
1:15 PM 55.4 °F - 44.6 °F 67% 30.02 in 10.0 mi WNW 8.1 mph - N/A   Mostly Cloudy
1:35 PM 55.4 °F - 44.6 °F 67% 30.02 in 10.0 mi NW 9.2 mph - N/A   Mostly Cloudy
1:55 PM 55.4 °F - 44.6 °F 67% 30.01 in 10.0 mi NW 9.2 mph - N/A   Mostly Cloudy
2:15 PM 57.2 °F - 44.6 °F 63% 30.01 in 10.0 mi NW 12.7 mph - N/A   Scattered Clouds
2:35 PM 55.4 °F - 44.6 °F 67% 30.01 in 10.0 mi NW 9.2 mph - N/A   Mostly Cloudy
2:55 PM 57.2 °F - 44.6 °F 63% 30.01 in 10.0 mi NW 8.1 mph - N/A   Scattered Clouds
3:15 PM 55.4 °F - 42.8 °F 63% 30.01 in 10.0 mi NNW 9.2 mph - N/A   Clear
3:35 PM 57.2 °F - 42.8 °F 59% 30.00 in 10.0 mi NW 8.1 mph - N/A   Partly Cloudy
3:55 PM 57.2 °F - 42.8 °F 59% 30.00 in 10.0 mi NW 10.4 mph - N/A   Partly Cloudy
4:15 PM 55.4 °F - 42.8 °F 63% 29.99 in 10.0 mi NW 9.2 mph - N/A   Clear
4:35 PM 55.4 °F - 41.0 °F 58% 29.99 in 10.0 mi WNW 8.1 mph - N/A   Clear
4:55 PM 55.4 °F - 41.0 °F 58% 29.99 in 10.0 mi NW 9.2 mph - N/A   Clear
5:15 PM 53.6 °F - 41.0 °F 62% 29.99 in 10.0 mi WNW 5.8 mph - N/A   Clear
5:35 PM 51.8 °F - 41.0 °F 67% 29.99 in 10.0 mi WNW 4.6 mph - N/A   Clear
5:55 PM 50.0 °F - 41.0 °F 71% 30.00 in 10.0 mi WNW 3.5 mph - N/A   Clear
6:15 PM 48.2 °F - 41.0 °F 76% 30.00 in 10.0 mi West 5.8 mph - N/A   Clear
6:35 PM 48.2 °F - 41.0 °F 76% 30.01 in 10.0 mi WNW 5.8 mph - N/A   Clear
6:55 PM 48.2 °F - 41.0 °F 76% 30.02 in 10.0 mi WNW 5.8 mph - N/A   Clear
7:15 PM 46.4 °F 45.2 °F 39.2 °F 76% 30.03 in 10.0 mi WNW 3.5 mph - N/A   Clear
7:35 PM 44.6 °F - 39.2 °F 81% 30.03 in 10.0 mi Calm Calm - N/A   Clear
7:55 PM 42.8 °F - 39.2 °F 87% 30.03 in 10.0 mi Calm Calm - N/A   Clear
8:15 PM 44.6 °F - 37.4 °F 76% 30.03 in 10.0 mi Calm Calm - N/A   Clear
8:35 PM 44.6 °F 42.2 °F 39.2 °F 81% 30.03 in 10.0 mi ENE 4.6 mph - N/A   Clear
8:55 PM 41.0 °F - 35.6 °F 81% 30.04 in 10.0 mi Calm Calm - N/A   Clear
9:15 PM 39.2 °F 35.9 °F 35.6 °F 87% 30.04 in 10.0 mi WSW 4.6 mph - N/A   Clear
9:35 PM 41.0 °F - 35.6 °F 81% 30.03 in 10.0 mi Calm Calm - N/A   Clear
9:55 PM 39.2 °F 35.9 °F 35.6 °F 87% 30.04 in 10.0 mi South 4.6 mph - N/A   Clear
10:15 PM 39.2 °F 35.9 °F 35.6 °F 87% 30.04 in 10.0 mi South 4.6 mph - N/A   Clear
10:35 PM 39.2 °F 35.0 °F 35.6 °F 87% 30.04 in 10.0 mi SSE 5.8 mph - N/A   Clear
10:55 PM 37.4 °F 32.1 °F 35.6 °F 93% 30.04 in 10.0 mi SE 6.9 mph - N/A   Clear
11:15 PM 37.4 °F 31.4 °F 35.6 °F 93% 30.04 in 10.0 mi SSE 8.1 mph - N/A   Clear
11:35 PM 37.4 °F 33.8 °F 35.6 °F 93% 30.04 in 10.0 mi SSE 4.6 mph - N/A   Clear
11:55 PM 37.4 °F 33.8 °F 35.6 °F 93% 30.04 in 10.0 mi SSE 4.6 mph - N/A   Clear